K2EJ-13 Weather Reports


time (UTC)temp
F
wind
direction
speed
knots
gust
knots
rain 1hr
in
rain 24hr
in
rain mn
in
humidity
%
barometer
mb
20260505025515 62 184 1.7 7.8 0.00 0.00 0.00 72 1009.9
20260505024535 62 187 0.0 4.3 0.00 0.00 0.00 72 1009.8
20260505023516 62 164 0.0 5.2 0.00 0.00 0.00 73 1009.9
20260505022515 63 0.0 0.0 0.00 0.00 0.00 70 1009.8
20260505021515 63 165 0.0 0.9 0.00 0.00 0.00 69 1009.9
20260505020515 64 175 0.0 1.7 0.00 0.00 0.00 68 1009.8
20260505015535 64 179 0.0 2.6 0.00 0.00 0.00 67 1009.8
20260505014535 64 188 0.9 4.3 0.00 0.00 0.00 67 1009.8
20260505013515 64 167 1.7 7.0 0.00 0.00 0.00 66 1009.6
20260505012515 65 210 0.9 5.2 0.00 0.00 0.00 65 1009.6
20260505011515 65 191 0.9 7.0 0.00 0.00 0.00 64 1009.4
20260505010515 65 217 1.7 7.0 0.00 0.00 0.00 62 1009.4
20260505005515 65 197 0.9 5.2 0.00 0.00 0.00 61 1009.4
20260505004515 66 187 0.9 5.2 0.00 0.00 0.00 60 1009.4
20260505003515 66 210 0.9 3.5 0.00 0.00 0.00 60 1009.4
20260505002515 66 190 1.7 7.0 0.00 0.00 0.00 59 1009.4
20260505001515 66 175 1.7 6.1 0.00 0.00 0.00 59 1009.2
20260505000515 66 170 1.7 6.1 0.00 0.00 0.00 59 1009.2
20260504235515 67 181 1.7 5.2 0.00 0.00 0.00 59 1009.3
20260504234515 67 172 0.9 4.3 0.00 0.00 0.00 57 1009.2
20260504233535 68 186 0.9 5.2 0.00 0.00 0.00 56 1009.2
20260504232515 68 183 1.7 4.3 0.00 0.00 0.00 53 1009.2
20260504231515 69 197 1.7 5.2 0.00 0.00 0.00 51 1009.2
20260504230515 69 192 2.6 7.8 0.00 0.00 0.00 50 1009.2
20260504225515 70 164 1.7 7.0 0.00 0.00 0.00 48 1009.2
20260504224515 70 183 2.6 7.8 0.00 0.00 0.00 45 1009.1
20260504223515 71 193 3.5 7.8 0.00 0.00 0.00 43 1009.1
20260504222515 71 183 2.6 8.7 0.00 0.00 0.00 42 1009.1
20260504221515 71 201 3.5 7.8 0.00 0.00 0.00 41 1009.1
20260504220515 72 189 4.3 13.9 0.00 0.00 0.00 40 1009.1
20260504215515 72 183 3.5 9.6 0.00 0.00 0.00 39 1009.1
20260504214515 72 183 4.3 9.6 0.00 0.00 0.00 38 1009.2
20260504213516 72 188 4.3 8.7 0.00 0.00 0.00 38 1009.2
20260504212515 73 198 2.6 8.7 0.00 0.00 0.00 38 1009.1
20260504211515 73 212 2.6 5.2 0.00 0.00 0.00 38 1009.2
20260504210515 73 201 2.6 7.8 0.00 0.00 0.00 37 1009.2
20260504205515 73 186 3.5 8.7 0.00 0.00 0.00 37 1009.3
20260504204515 74 167 1.7 4.3 0.00 0.00 0.00 38 1009.4
20260504203515 74 194 2.6 7.0 0.00 0.00 0.00 37 1009.4
20260504202515 74 174 2.6 13.0 0.00 0.00 0.00 36 1009.6
20260504201515 74 216 1.7 8.7 0.00 0.00 0.00 36 1009.8
20260504200516 74 200 3.5 9.6 0.00 0.00 0.00 36 1010.0
20260504195515 74 188 4.3 10.4 0.00 0.00 0.00 36 1010.1
20260504194515 74 174 3.5 8.7 0.00 0.00 0.00 36 1010.3
20260504193515 73 179 1.7 7.0 0.00 0.00 0.00 36 1010.5
20260504192516 74 178 3.5 9.6 0.00 0.00 0.00 36 1010.7
20260504191515 73 204 3.5 10.4 0.00 0.00 0.00 37 1010.8
20260504190556 73 201 4.3 8.7 0.00 0.00 0.00 37 1010.9
20260504185515 73 181 3.5 9.6 0.00 0.00 0.00 38 1011.1
20260504184515 73 197 4.3 11.3 0.00 0.00 0.00 37 1011.2
20260504183515 73 141 1.7 6.1 0.00 0.00 0.00 38 1011.2
20260504182515 72 194 4.3 12.2 0.00 0.00 0.00 36 1011.2
20260504181515 73 185 3.5 8.7 0.00 0.00 0.00 37 1011.3
20260504180515 73 199 2.6 7.8 0.00 0.00 0.00 37 1011.5
20260504175516 73 201 1.7 6.1 0.00 0.00 0.00 37 1011.6
20260504174515 73 184 2.6 7.8 0.00 0.00 0.00 40 1011.8
20260504173516 72 178 1.7 7.0 0.00 0.00 0.00 39 1011.9
20260504172515 72 161 0.9 6.1 0.00 0.00 0.00 42 1012.0
20260504171535 71 196 3.5 13.0 0.00 0.00 0.00 40 1012.0
20260504170555 71 195 2.6 7.8 0.00 0.00 0.00 40 1012.3
20260504150515 69 185 1.7 7.0 0.00 0.00 0.00 43 1013.7
20260504140515 67 189 1.7 4.3 0.00 0.00 0.00 46 1013.9
20260504130515 62 179 0.9 5.2 0.00 0.00 0.00 56 1014.3
20260504110515 46 0.0 0.0 0.00 0.00 0.00 95 1014.7
20260504100515 43 0.0 0.0 0.00 0.00 0.00 96 1014.7
20260504081536 42 0.0 0.0 0.00 0.00 0.00 96 1015.0
20260504080556 42 0.0 0.0 0.00 0.00 0.00 95 1015.0
20260504050515 44 0.0 0.0 0.00 0.00 0.00 89 1015.0
20260504045516 44 0.0 0.0 0.00 0.00 0.00 86 1015.1
20260504044515 45 0.0 0.0 0.00 0.00 0.00 85 1015.0
20260504043515 45 0.0 0.0 0.00 0.00 0.00 86 1014.9
20260504042515 45 0.0 0.0 0.00 0.00 0.00 85 1014.7
20260504041535 46 0.0 0.0 0.00 0.00 0.00 84 1014.7
20260504040515 46 0.0 0.0 0.00 0.00 0.00 83 1014.7
20260504035535 46 0.0 0.0 0.00 0.00 0.00 82 1014.6
20260504034515 46 0.0 0.0 0.00 0.00 0.00 81 1014.4
20260504033515 46 0.0 0.0 0.00 0.00 0.00 82 1014.3
20260504032516 46 0.0 0.0 0.00 0.00 0.00 80 1014.2
20260504031515 47 0.0 0.0 0.00 0.00 0.00 80 1014.3
20260504030515 47 0.0 0.0 0.00 0.00 0.00 79 1014.2